This is the latest recevied weather packets stored in our database for station/object KD6VPH. If no packets are shown the sender has not sent any weather packets the latest 1 day(s).
| Time | Temp. | Humidity | Pressure | Rain* | Wind** | Luminosity | Snow |
|---|---|---|---|---|---|---|---|
| 1778034905 | 16.67° C | 72% | 1013.6 hPa | 0 mm | 0 m/s | 35 W/m² | - |
| 1778034305 | 16.67° C | 72% | 1013.7 hPa | 0 mm | 0 m/s | 44 W/m² | - |
| 1778033705 | 17.22° C | 71% | 1013.6 hPa | 0 mm | 0 m/s | 54 W/m² | - |
| 1778033105 | 17.22° C | 70% | 1013.6 hPa | 0 mm | 0 m/s | 62 W/m² | - |
| 1778032505 | 17.78° C | 70% | 1013.5 hPa | 0 mm | 0.45 m/s, 219° | 76 W/m² | - |
| 1778031905 | 17.78° C | 69% | 1013.4 hPa | 0 mm | 0.45 m/s, 219° | 83 W/m² | - |
| 1778031305 | 18.33° C | 68% | 1013.4 hPa | 0 mm | 0.45 m/s, 254° | 163 W/m² | - |
| 1778030705 | 18.89° C | 68% | 1013.4 hPa | 0 mm | 0 m/s | 462 W/m² | - |
| 1778030106 | 18.89° C | 67% | 1013.4 hPa | 0 mm | 0.45 m/s, 220° | 501 W/m² | - |
| 1778029505 | 18.89° C | 67% | 1013.5 hPa | 0 mm | 0.45 m/s, 217° | 529 W/m² | - |
| 1778028905 | 18.33° C | 68% | 1013.5 hPa | 0 mm | 1.34 m/s, 311° | 629 W/m² | - |
| 1778028305 | 18.89° C | 68% | 1013.7 hPa | 0 mm | 0 m/s | 478 W/m² | - |
| 1778027705 | 19.44° C | 66% | 1013.8 hPa | 0 mm | 0.45 m/s, 346° | 529 W/m² | - |
| 1778027105 | 18.89° C | 67% | 1013.5 hPa | 0 mm | 0.45 m/s, 328° | 499 W/m² | - |
| 1778026506 | 18.89° C | 68% | 1013.6 hPa | 0 mm | 0.45 m/s, 212° | 940 W/m² | - |
| 1778025906 | 18.33° C | 68% | 1013.6 hPa | 0 mm | 0.89 m/s, 359° | 947 W/m² | - |
| 1778025306 | 17.78° C | 70% | 1013.6 hPa | 0 mm | 0.45 m/s, 244° | 563 W/m² | - |
| 1778024707 | 17.78° C | 70% | 1013.8 hPa | 0 mm | 0 m/s | 519 W/m² | - |
| 1778024106 | 17.78° C | 71% | 1014 hPa | 0 mm | 0.45 m/s, 309° | 427 W/m² | - |
| 1778022906 | 17.22° C | 71% | 1014.2 hPa | 0 mm | 0.45 m/s, 335° | 366 W/m² | - |
| 1778022306 | 17.22° C | 72% | 1014.3 hPa | 0 mm | 0.45 m/s, 91° | 359 W/m² | - |
| 1778021706 | 17.22° C | 73% | 1014.4 hPa | 0 mm | 0 m/s | 338 W/m² | - |
| 1778021106 | 17.22° C | 72% | 1014.4 hPa | 0 mm | 0.45 m/s, 132° | 343 W/m² | - |
| 1778019906 | 16.67° C | 73% | 1014.6 hPa | 0 mm | 0.45 m/s, 299° | 420 W/m² | - |
| 1778018706 | 16.67° C | 74% | 1014.8 hPa | 0 mm | 0.45 m/s, 242° | 360 W/m² | - |
* Rain latest hour (hover to see other rain measurements)
** Current wind speed in m/s (hover to see current wind gust speed)